Regional Weather Roundup
Issued by NWS

Home | Current Version | Previous Version | Graphics & Text | Print | Product List | Glossary On
Versions: 1 2 3 4 5 6 7 8 9 10 11 12 13 14 15 16 17 18 19 20 21 22 23 24 25 26 27 28 29 30 31 32 33 34 35 36 37 38 39 40 41 42 43 44 45 46 47 48 49 50
000
ASUS43 KIND 261309
RWRIN

WEATHER ROUNDUP FOR INDIANA
NATIONAL WEATHER SERVICE INDIANAPOLIS IN
900 AM EDT SAT MAY 26 2018

NOTE: "FAIR" INDICATES FEW OR NO CLOUDS BELOW 12,000 FEET WITH NO
SIGNIFICANT WEATHER AND/OR OBSTRUCTIONS TO VISIBILITY.

* - STATION DOES NOT REPORT WEATHER SUCH AS PRECIPITATION OR FOG.

+ - STATION NOT QUALITY CONTROLLED BY THE NATIONAL WEATHER SERVICE.
    USE DATA WITH CAUTION...ESPECIALLY DEWPOINT AND RELATIVE
    HUMIDITY OBSERVATIONS.

INZ001>003-010>013-019-020-261400-
NORTHWEST INDIANA

CITY           SKY/WX    TMP DP  RH WIND       PRES   REMARKS
GARY /AIRPORT/ PTSUNNY   73  66  78 SW5       29.79R
KNOX *+        PTSUNNY   70  68  94 CALM      29.81R
LA PORTE +     FAIR      71  67  87 SW8       29.82R
MICHIGAN CITY+ PTSUNNY   72  64  78 S7        29.80R
MONTICELLO +   DRIZZLE   69  67  95 SW8       29.82S
RENSSELAER +   CLOUDY    70  64  83 SW7       29.83R
VALPARAISO     FAIR      73  68  84 SW10      29.82R

$$

LMZ046-743>745-261400-
SOUTHERN LAKE MICHIGAN

STATION/POSITION TIME  TEMP    WIND        PRES    WAVE
                       AIR SEA DIR/SP/G            HT
                 (UTC) (F)     (DEG/KT/KT) (MB)    (FT)
BURNS HARBOR     1230   70     200/  8/ 12 1009.1S
MICHIGAN CITY    1240   70     180/ 10/ 12   N/A
5NW MICH CITY    1300   65 60  220/  6/  8   N/A     1

$$

INZ004-005-014>016-021>024-261400-
NORTH CENTRAL INDIANA

CITY           SKY/WX    TMP DP  RH WIND       PRES   REMARKS
ELKHART        SUNNY     72  66  83 S6        29.81R
GOSHEN         PTSUNNY   73  68  84 SW8       29.82R HAZE
LOGANSPORT +   CLOUDY    70  64  83 SW8       29.84S
PERU/GRISSOM   PTSUNNY   72  72  99 SW9       29.83R
ROCHESTER +    FAIR      72  68  88 SW7       29.84R
SOUTH BEND     PTSUNNY   71  67  87 S9        29.81R
WARSAW +       FAIR      70  68  94 SW3       29.83R

$$

INZ006>009-017-018-025>027-261400-
NORTHEAST INDIANA

CITY           SKY/WX    TMP DP  RH WIND       PRES   REMARKS
ANGOLA *+      PTSUNNY   72  64  78 SW6       29.83S
AUBURN +       FAIR      72  64  78 S3        29.85R
FORT WAYNE     PTSUNNY   75  65  70 SW10      29.84S
HUNTINGTON +   FAIR      73  65  78 SW6       29.84R
KENDALLVILLE + CLOUDY    70  64  79 SW5       29.84S

$$

INZ028-029-035-036-043>045-051>053-261400-
WEST CENTRAL INDIANA

CITY           SKY/WX    TMP DP  RH WIND       PRES   REMARKS
CRAWFORDSVL +  CLOUDY    69  67  92 SW8       29.85S
GREENCASTLE +  CLOUDY    68  64  88 CALM      29.86S
LAFAYETTE      LGT RAIN  68  67  96 S3        29.83S FOG
TERRE HAUTE    HVY RAIN  70  68  93 SW8       29.86R FOG

$$

INZ030>032-037>040-046>048-054>057-064-065-261400-
CENTRAL INDIANA

CITY           SKY/WX    TMP DP  RH WIND       PRES   REMARKS
ANDERSON       FAIR      74  65  74 SW5       29.86S
COLUMBUS       MOSUNNY   73  64  73 S7        29.88S
FISHERS *+     FAIR     N/A N/A N/A SW7       29.86
FRANKFORT +    LGT RAIN  73  68  86 SW8       29.87R
GREENWOOD *+   FAIR      71  66  82 SW6       29.87S
INDIANAPOLIS   FAIR      73  67  81 SW10      29.84F
-EAGLE CREEK   PTSUNNY   75  67  76 VRB6      29.84S
KOKOMO +       PTSUNNY   73  64  73 SW12      29.85R
MARION +       FAIR      74  65  73 SW7       29.85R
MT COMFORT *+  FAIR      72  68  88 S7        29.86F
SHELBYVILLE    PTSUNNY   75  65  70 SW10      29.86S
ZIONSVILLE +   PTSUNNY   72  66  80 SW8       29.86S

$$

INZ033-034-041-042-049-050-058-059-261400-
EAST CENTRAL INDIANA

CITY           SKY/WX    TMP DP  RH WIND       PRES   REMARKS
MUNCIE         FAIR      75  65  70 SW8       29.85S
RICHMOND +     PTSUNNY   70  66  88 SW8       29.90R

$$

INZ060-061-067>069-081>083-085>088-261400-
SOUTHWEST INDIANA

CITY           SKY/WX    TMP DP  RH WIND       PRES   REMARKS
EVANSVILLE     FAIR      73  70  90 S9        29.89R
HUNTINGBURG +  PTSUNNY   73  69  87 S8        29.89S
WASHINGTON +   FAIR      74  68  80 SW7       29.87R

$$

INZ062-063-066-070>080-084-089>092-261400-
SOUTH CENTRAL AND SOUTHEAST INDIANA

CITY           SKY/WX    TMP DP  RH WIND       PRES   REMARKS
BATESVILLE +   SUNNY     72  68  88 VRB5      29.89S
BEDFORD +      FAIR      75  66  73 CALM      29.88S
BLOOMINGTON    FAIR      73  68  84 SW7       29.87R
FRENCH LICK *+ PTSUNNY   72 N/A N/A SW5       29.90S
MADISON *+     FAIR      73  66  78 S6        29.92R
NORTH VERNON + FAIR      72  66  83 S6        29.89R
SEYMOUR +      FAIR      75  66  73 S6        29.88S

$$





USA.gov is the U.S. government's official web portal to all federal, state and local government web resources and services.